STARLINK-32477, 62038

Orbit data source: Space-Track

STARLINK-32477, 62038 is a payload satellite owned by SpaceX/Seattle (US) in LEO that was launched on Thu, 21 Nov 2024 UTC via an FALCON 9 launch vehicle from the Air Force Eastern Test Range (AFETR). Payload-class satellites include a variety of spacecraft equipped with specific instruments for various scientific and technological missions. These include communications satellites like Starlink; space stations such as the ISS; scientific satellites like the Hubble; Earth observation satellites from companies like Planet Labs, Umbra, and HawkEye 360; GPS; miniature CubeSats for education and research; and military/defense satellites.

Loading next visibility...
Identifier
62038, 2024-216G
Orbit
LEO
Country
Flag of USUS
Related business
Manufacturer
SpaceX/Seattle
Mission
Operational Commercial Communications
Bus & Motor
STARLINK V2M, Unknown motor
Mass
730 kg wet, ~700 kg dry
Launch date (UTC)
2024-11-21 (9 months ago)
Launch vehicle
FALCON 9
Launch site
Air Force Eastern Test Range (AFETR)
Object type
Payload
Rocket body
Debris
Shape & HBR
Box + 2 Pan, 14.5 m
Radar Cross Section
36.964 m², Large (>1 m²)

Expand to show TLE details & history
Last TLE update: 17 hours ago

TLE from 17 hours ago
0 STARLINK-32477
1 62038U 24216G   25241.75740485  .00026709  00000-0  97618-3 0  9996
2 62038  42.9958 256.6661 0000976 285.1016  74.9728 15.27594188 43403
Epoch: 2025-08-29T18:10Z
TLE epoch observation values (Epoch: 2025-08-29T18:10:39.779Z)
Latitude
0.00003°
Longitude
5.79892°
Altitude
482.608 km
Speed
7.626 km/s
True Right ascension
17h 06m 39s
True Declination
0° 00' 00"
Sunlit
Object was in daylight at epoch
Visualization orbit readout
Latitude
Unknown
Longitude
Unknown
Altitude
Unknown
Speed
Unknown
Apparent Right ascension
Unknown
Apparent Declination
Unknown
Sunlit
N/A
Visualization observer readout
Local Sidereal Time
02:41:56
Azimuth
Unknown
Elevation
Unknown
Doppler factor
Unknown
Orbital elements
Apogee altitude
485.622 km
Perigee altitude
484.283 km
Semi-major axis
6,863.09 km
Eccentricity
0.0001
Inclination
42.9958°
RAAN
256.6661°
Arg. of periapsis
285.1016°
True anomaly
74.9836°
Mean anomaly
74.9728°
Eccentric anomaly
74.9782°
Mean motion
3.81736 °/min
Orbital period
94.31 mins
BSTAR
0.00097618
Loading maneuver chart data...
Computing Atmospheric mass density...
Loading historical data...
Loading historical data...
Loading historical data...
Loading historical data...
Loading historical data...
Loading historical data...
Loading historical data...

Documentation

Showing up to 5 results
|